GHGSAT-C12

Satellite information

Favourite Embed

Satellite Type and Status

PAYLOADIN ORBIT

Key statistics

Satellite GHGSAT-C12 at a glance.

Uptime

75

Days in orbit

Revolutions

≈ 15.2

Per day

Orbit

SSO

Sun Synchronous Orbit

Inclination

97.5

Latest

Satellite identification and parameters

Extended collection of information and parameters for GHGSAT-C12.

Object identification

Identified? True

Debris? False

Object name: GHGSAT-C12

International designator: 2025-135B

Object number (NORAD): 64529

Object ID (CCSDS): 64529

Country: CANADA (CA)

Current information (Y/N): Y

RCS size: SMALL

Orbital parameters

Period: 94.894 minutes

Inclination: 97.4537 deg

SMA: 6891.595 km

Apoapsis: 517.971 km

Periapsis: 508.949 km

RAAN: 2.1007 deg

Eccentricy: 0.00065452

Argument of periapsis: 86.7285 deg

Mean anomaly: 273.4697 deg

Mean motion: 15.17480533 rev/day

Mean motion (dot): 0.00005787 rev/day2

B* drag term: 0.00029204228 1/REarth

Two-line elements (TLE)

Creation date: Sept. 6, 2025, 2:09 a.m.

Reference frame: TEME

Reference center: EARTH

Epoch: Sept. 5, 2025, 7:23 p.m. UTC

TLE line 0: 0 GHGSAT-C12

TLE line 1: 1 64529U 25135B 25248.80814633 .00005787 00000-0 29204-3 0 9993

TLE line 2: 2 64529 97.4537 2.1007 0006545 86.7285 273.4697 15.17480533 11657

Live tracking on map

Real-time ground track for satellite GHGSAT-C12.

In-orbit conjunctions

There are no conjunctions computed for GHGSAT-C12, at the moment. Check back to stay up to date, as we update our databases every day.

Go to all conjunctions

Associated space launch

Dedicated rideshare flight to a sun-synchronous orbit with dozens of small microsatellites and nanosatellites for commercial and government customers.

GHGSAT-C12 was lifted into orbit during the mission ‘Falcon 9 Block 5 | Transporter 14 (Dedicated SSO Rideshare)’, on board a Falcon 9 space rocket.

The launch took place on June 23, 2025, 9:25 p.m. from Space Launch Complex 4E.

For more information about the launch, click the button.

Launch to space Falcon 9 Block 5 | Transporter 14 (Dedicated SSO Rideshare)
Falcon 9 Block 5 | Transporter 14 (Dedicated SSO Rideshare)

Agency: SpaceX

Status: Launch Successful

Launch date: June 23, 2025, 9:25 p.m. UTC

Rocket: Falcon 9

Launch pad: Space Launch Complex 4E

Location: Vandenberg SFB, CA, USA

...

Latest news about this satellite

News about space launch
A European spacecraft company flies its vehicle, then loses it after reentry

"This partial success reflects both ambition and the inherent risks of innovation."

News about space launch
The Exploration Company claims partial success of Mission Possible reentry spacecraft

The Exploration Company said it achieved “partial success” on a test flight of a reentry capsule but lost the spacecraft before it splashed down. The post The Exploration Company claims partial success of Mission Possible reentry spacecraft appeared firs...

News about space launch
The Exploration Company Declares Mission Possible a “Partial Success”

In-space logistics startup The Exploration Company has declared its Mission Possible flight both a partial success and a partial failure following a successful reentry. As The Exploration Company works toward the inaugural flight of its full-scale Nyx spa...


Newsletter sign-up

Weekly statistics, charts and insights to help you stay on top of the space industry.